Vorticity
7 6 6 5 5 6 6 8 9 10 11 11 13 15 14 11 10 11 10 10 10 7 10 11 6 7 9 10 12 10 7 5 3 3 3 4 4 3 4 2 2 7 11 11 11 11 11 13 13 10 9 9 8 7 6 6 6 7 8 9 9 8 10 11 13 14 13 12 11 10 9 8 7 7 7 7 7 8 8 8 8 8 8 7 6 6
4 4 4 4 3 5 4 5 7 9 10 13 13 12 11 8 7 12 10 10 11 6 7 12 10 9 10 11 15 18 19 15 9 6 4 3 3 2 2 2 5 9 9 9 9 11 13 14 13 11 10 9 7 7 7 8 8 8 9 10 9 8 8 8 9 11 12 13 13 13 12 11 11 11 10 9 9 9 8 8 8 8 8 7 6 7
5 4 3 4 4 3 3 3 4 5 5 7 8 7 6 4 3 6 7 5 5 3 4 8 8 8 9 10 12 16 22 23 18 14 10 8 6 5 5 6 8 9 9 8 8 10 11 10 9 9 9 8 8 9 10 10 9 9 10 11 11 10 9 8 7 8 10 11 12 12 12 12 12 12 12 12 11 10 10 10 9 8 8 7 7 8
6 5 5 5 5 5 5 4 3 3 4 3 4 4 3 3 4 5 6 7 6 3 3 4 3 4 6 6 6 7 13 18 17 15 14 12 11 9 9 9 10 9 8 8 7 8 7 7 8 8 7 6 7 8 8 8 8 9 10 11 11 10 10 9 8 9 11 11 12 12 13 12 12 12 12 12 12 12 12 11 10 10 9 9 8 9
6 7 9 7 7 8 8 8 6 4 4 4 5 4 3 3 2 1 1 3 4 3 3 2 2 6 7 5 6 6 6 9 11 10 10 12 11 9 8 8 8 8 7 7 7 6 7 9 9 5 2 3 4 5 5 7 8 7 8 10 12 13 12 11 10 10 11 10 11 12 12 12 12 13 13 12 11 11 12 11 11 10 10 10 9 9
6 7 7 7 7 8 9 10 10 9 8 7 7 6 6 6 5 3 2 -0 2 8 9 8 6 7 8 6 5 5 5 7 8 6 5 7 8 8 9 8 6 6 7 6 7 8 9 10 8 4 3 5 5 4 4 7 7 6 6 8 11 15 14 12 11 11 11 10 11 12 12 12 11 11 12 12 12 11 10 10 10 11 11 10 10 10
8 9 9 9 8 8 9 8 10 12 11 11 13 12 9 8 7 7 7 4 5 8 8 9 8 5 6 10 11 10 9 8 9 8 6 5 6 7 7 6 4 4 4 6 8 9 11 11 7 4 5 6 5 3 3 5 6 5 6 7 10 13 14 12 11 11 12 12 12 13 12 11 11 11 10 11 11 10 10 10 11 12 12 11 11 10
10 11 11 11 12 14 13 11 13 14 11 9 12 12 10 11 11 8 9 8 5 4 3 5 7 5 5 8 11 12 12 11 10 10 9 7 6 5 5 4 4 5 5 8 9 8 8 10 8 3 1 2 3 3 2 3 5 4 5 9 12 13 12 11 10 11 13 14 14 14 13 11 11 10 9 9 9 10 10 9 10 11 12 12 12 11
9 10 10 10 12 12 12 12 12 12 13 10 8 11 11 10 11 10 11 9 6 7 9 9 10 11 9 8 8 8 8 8 8 9 9 8 6 6 6 6 6 7 8 9 9 6 4 7 9 5 -0 -1 2 5 4 4 5 5 8 14 15 12 11 10 10 11 12 13 14 14 14 13 11 10 9 8 8 9 9 9 9 9 9 10 10 11
9 9 9 10 10 9 9 12 12 11 14 11 9 12 11 9 10 9 8 8 7 8 8 7 7 8 9 9 10 11 11 8 7 9 9 7 7 6 6 7 8 7 8 9 8 7 5 6 7 5 2 1 3 6 6 6 8 11 16 18 15 12 11 9 9 10 11 11 12 13 13 12 11 10 9 9 9 9 10 10 10 9 8 8 8 9
9 9 8 8 9 9 8 9 9 9 10 9 8 11 13 12 12 10 9 8 7 10 14 15 14 10 8 10 9 10 14 11 8 10 10 9 8 8 7 7 7 7 7 8 8 7 8 10 10 8 6 4 6 10 11 13 15 17 17 14 11 9 8 8 9 10 10 10 11 11 10 11 10 10 9 9 9 9 10 10 10 11 10 8 8 8
11 11 10 10 9 10 10 9 9 8 9 8 8 10 9 8 11 14 16 16 13 15 17 16 13 12 13 15 13 17 23 21 15 11 11 12 11 10 9 8 7 7 7 7 8 9 11 12 11 8 7 11 17 19 18 17 16 13 10 8 8 7 6 7 10 11 10 9 10 9 9 10 9 9 10 10 11 9 10 10 11 11 11 10 9 9
13 10 8 10 10 9 10 11 10 9 10 11 9 8 6 8 13 10 9 14 15 13 10 7 8 11 13 10 7 13 20 22 21 18 15 15 15 14 14 13 12 11 10 9 8 9 9 9 10 11 14 20 21 17 14 13 10 6 5 4 5 5 5 6 8 11 13 12 12 11 11 10 8 8 9 9 10 10 9 10 11 11 12 11 10 9
13 15 15 15 14 14 13 12 11 8 9 12 12 10 8 10 9 6 11 15 10 9 11 10 9 8 8 9 9 11 13 14 17 18 17 16 16 17 18 19 21 21 19 18 16 15 15 16 17 19 22 24 20 13 9 7 6 6 5 3 3 4 6 7 7 8 10 11 11 11 10 9 9 8 8 7 7 8 9 8 8 10 11 12 12 10
9 9 12 12 11 13 14 13 12 10 10 11 9 7 5 3 -2 0 9 9 4 12 18 12 6 4 5 8 9 8 8 10 11 11 11 12 11 12 13 15 18 22 24 25 26 26 24 22 20 17 16 16 15 11 8 6 6 6 6 5 4 5 6 7 6 6 8 7 7 7 6 6 7 8 8 8 7 7 8 8 7 6 7 8 10 10
4 1 4 5 6 8 8 9 11 11 14 15 12 10 10 9 7 3 -0 -5 -6 -5 -5 -4 -1 4 6 4 3 5 8 11 14 13 10 8 9 9 11 12 11 13 15 19 21 20 17 15 13 12 10 7 7 7 5 4 4 4 4 4 4 4 7 8 5 6 8 7 5 5 6 7 7 9 9 9 9 9 9 10 10 9 8 7 7 7
4 6 8 6 5 7 5 5 7 6 8 9 9 12 13 11 11 10 7 8 10 3 2 6 7 8 9 7 8 9 10 11 13 15 11 7 6 5 7 10 10 9 9 12 14 13 13 12 9 9 7 5 5 4 2 3 4 4 4 5 6 5 7 8 6 6 6 7 8 9 10 10 9 9 10 10 11 10 10 10 10 10 11 10 9 8
4 4 8 6 3 5 5 4 5 4 5 5 4 6 9 9 8 9 9 9 11 9 11 13 11 11 9 8 13 13 10 10 9 10 13 11 9 6 5 7 9 9 8 9 12 11 9 8 5 3 3 4 4 3 2 3 3 5 5 6 6 4 5 6 7 10 11 10 10 9 9 11 12 12 13 12 12 11 10 9 8 8 8 9 9 9
3 3 7 7 6 9 7 6 6 5 5 7 5 3 1 2 5 8 9 10 11 13 14 12 13 16 13 7 9 10 10 11 8 7 9 11 12 10 9 7 7 9 9 9 12 9 6 8 7 5 4 6 5 1 -0 1 4 9 11 9 6 4 5 7 10 12 11 9 8 6 7 8 10 13 15 13 11 9 9 8 7 7 7 8 9 9
6 7 6 5 8 9 7 8 10 9 9 8 8 10 9 6 5 2 1 1 2 3 5 3 6 16 22 17 10 7 9 9 9 9 8 8 9 8 7 5 3 6 7 9 10 8 8 15 21 18 12 10 6 -2 -5 -2 2 4 6 7 6 5 7 9 9 8 5 6 7 5 7 8 7 10 9 5 4 5 7 6 5 4 4 5 6 8
5 4 3 3 3 4 6 11 11 8 8 5 4 9 12 13 13 11 9 8 5 2 -0 0 2 3 5 8 8 9 9 5 5 10 8 5 6 7 7 6 6 8 8 8 9 7 7 12 16 14 9 9 12 11 7 5 4 5 10 7 -4 -2 12 11 4 5 6 6 7 7 8 9 8 9 6 2 3 5 6 4 3 3 3 5 5 6
2 0 3 3 2 4 4 5 4 2 3 5 4 3 2 5 8 6 7 12 12 8 5 6 5 -0 -4 -0 4 5 6 6 5 7 8 6 5 6 6 4 5 9 10 9 7 6 5 3 4 7 5 3 8 12 10 7 9 14 18 8 -12 -7 14 13 5 7 3 0 5 7 7 6 7 8 6 3 3 3 3 2 1 1 2 4 6 6
4 3 3 3 4 4 1 1 6 6 6 8 9 9 7 6 7 6 6 10 8 7 13 16 14 12 11 10 9 5 4 8 7 4 4 5 4 4 4 2 1 2 7 10 8 5 3 -3 -6 -0 5 6 5 5 4 4 6 10 14 12 4 5 11 9 8 9 1 -1 5 3 2 5 5 4 4 4 3 2 4 4 2 2 4 6 7 7
6 5 5 5 5 4 3 5 7 6 7 7 8 12 12 7 6 7 7 10 10 8 10 9 6 9 13 14 15 12 7 9 12 8 5 4 3 3 3 4 3 2 3 5 5 4 4 -0 -7 -9 -4 3 5 4 4 3 4 5 8 10 11 9 9 7 6 5 1 4 7 1 3 10 8 4 4 4 4 4 5 7 5 4 6 4 3 5
6 4 4 5 4 3 4 6 6 7 8 7 6 8 8 6 7 5 1 3 8 6 2 -3 -5 -0 7 12 12 9 8 8 10 10 8 5 3 2 2 4 5 5 5 5 3 -1 -1 1 -1 -5 -7 -2 3 4 3 3 4 4 2 1 1 2 6 9 6 5 4 5 5 4 7 9 5 4 6 4 3 5 5 6 5 4 3 0 -1 3
7 4 5 6 4 4 6 6 6 6 5 7 9 9 7 8 8 7 7 7 7 10 13 14 10 4 3 5 6 8 13 11 7 9 10 10 9 5 3 2 2 2 5 7 6 3 -1 -1 -1 -4 -8 -3 6 8 5 4 4 4 3 3 3 3 3 5 5 5 5 5 5 6 6 6 4 5 8 6 5 6 6 5 5 4 5 6 6 6
7 5 6 7 5 7 9 5 4 7 7 7 9 9 9 10 9 9 10 9 6 4 3 3 4 4 3 4 6 9 9 7 8 12 11 10 11 10 8 6 5 4 3 3 4 3 1 -1 -3 -6 -7 -0 9 11 8 6 5 5 7 7 7 6 5 5 6 6 7 6 7 7 7 8 9 7 7 7 6 7 5 6 8 6 4 6 8 9
8 7 7 7 7 8 9 6 5 10 11 8 8 8 9 10 11 10 10 10 10 8 5 2 3 6 6 4 5 6 4 6 13 20 19 15 12 11 11 11 10 10 9 7 6 5 4 5 5 5 7 12 15 12 10 11 8 6 9 10 10 10 9 8 8 8 7 4 5 8 7 7 7 6 4 4 6 7 5 7 9 7 4 5 5 6
8 8 7 7 9 9 9 9 9 10 10 10 10 10 10 10 9 9 10 11 10 7 8 9 7 5 6 7 10 10 9 12 17 21 24 22 15 11 11 11 10 11 11 11 11 11 12 13 14 17 18 19 22 22 20 19 17 11 8 7 8 8 9 10 9 9 8 4 2 4 3 1 0 0 -1 -1 1 3 5 6 5 4 5 5 4 3
7 9 9 9 10 9 9 10 9 10 10 9 9 9 10 10 9 9 9 10 9 7 7 8 7 5 7 8 8 7 6 4 -1 -5 -5 -7 -5 2 8 9 9 10 9 9 10 10 10 11 12 14 14 13 17 20 18 18 20 19 13 9 7 6 6 7 6 5 6 5 3 3 2 1 -1 -1 0 -0 -1 0 2 3 2 2 4 5 3 3
9 10 10 10 10 9 9 10 10 9 9 7 8 9 8 8 8 9 9 7 7 7 6 6 5 5 7 7 7 9 11 9 1 -3 1 -1 -2 4 9 8 9 11 11 11 11 10 10 11 10 6 4 6 7 7 6 5 8 12 12 11 10 8 9 10 9 7 6 5 6 5 3 2 2 2 3 3 3 3 3 3 3 4 5 5 5 4
10 10 10 10 10 9 9 9 8 8 8 7 7 7 7 8 8 7 7 7 6 6 7 6 6 8 10 10 12 11 10 12 11 9 14 16 11 9 9 9 10 11 10 10 11 11 11 12 11 5 2 4 4 3 1 -4 -7 -5 -3 -3 -4 -4 0 5 7 8 9 10 10 9 7 7 7 6 6 6 6 7 7 8 8 8 7 8 9 9
9 9 9 9 9 10 9 9 9 10 9 9 9 9 10 11 10 10 10 10 10 10 10 9 11 12 11 9 12 11 7 10 16 13 8 8 12 15 15 12 10 9 9 9 10 10 11 12 13 12 11 10 8 6 4 1 -0 1 1 -0 -3 -4 -1 2 1 1 2 2 3 4 5 6 6 6 6 7 7 8 9 8 8 7 6 6 6 9
8 9 10 10 11 11 11 10 11 11 10 10 9 9 9 10 11 12 11 11 11 12 12 12 12 13 12 11 12 13 10 8 11 11 7 4 9 14 14 10 8 8 9 9 10 10 11 11 12 13 13 14 13 13 13 13 12 13 13 12 11 11 11 11 10 9 7 5 4 4 3 3 3 3 3 4 5 6 7 6 6 6 5 5 4 5
12 12 12 12 11 11 10 9 8 8 8 8 8 8 9 10 10 10 10 10 11 11 13 14 13 11 13 14 12 13 14 10 8 11 10 7 6 5 2 3 6 9 9 10 12 12 12 11 11 11 11 11 12 12 13 13 13 13 13 13 13 13 13 13 12 13 13 12 11 11 10 9 8 8 7 6 7 7 7 7 7 7 7 9 9 8
12 10 9 9 8 7 6 7 7 7 7 7 8 9 10 10 10 11 12 10 10 12 14 14 14 13 13 14 14 13 13 13 13 14 11 10 10 6 3 6 10 10 10 10 11 10 10 10 10 10 10 10 10 10 10 11 11 11 11 12 12 12 12 13 13 12 13 13 13 13 13 13 12 12 12 12 12 12 11 10 10 9 9 10 10 12
8 8 8 7 7 7 8 8 8 9 10 11 13 13 13 13 14 13 12 12 12 13 13 11 12 13 13 12 13 12 13 16 19 17 13 12 12 9 9 10 10 8 9 9 9 9 9 9 9 10 10 10 10 11 10 10 10 10 10 10 11 11 11 11 12 12 13 13 14 14 15 15 15 15 14 15 14 13 12 12 12 12 12 11 11 12
10 11 11 11 11 10 10 11 11 12 13 13 13 12 13 15 15 14 15 16 14 13 13 12 12 13 13 13 13 13 14 18 22 22 17 14 13 12 12 11 11 10 9 8 8 8 8 8 9 9 9 10 10 11 11 11 12 12 12 12 12 12 12 12 12 13 13 13 13 13 14 14 15 15 14 14 15 14 13 13 12 11 11 11 11 11
12 12 12 13 14 13 13 13 14 14 13 11 10 11 13 13 12 14 15 13 11 11 13 13 12 12 11 11 11 12 12 16 18 13 9 12 15 15 15 15 14 14 12 11 11 11 10 11 10 10 10 10 10 10 10 11 11 11 11 12 11 11 11 12 12 12 12 13 13 12 12 12 12 12 13 12 12 13 13 13 13 12 12 11 11 10
14 13 12 13 13 13 13 12 12 13 12 12 12 13 14 13 13 15 14 11 12 14 14 12 13 14 13 12 12 12 11 13 9 1 2 13 15 11 12 15 15 15 14 13 12 11 11 11 10 10 10 9 9 10 11 12 12 13 13 13 13 14 13 13 13 12 12 12 11 11 11 11 11 11 11 11 10 11 11 12 12 12 12 12 12 11
13 11 12 13 12 12 12 11 12 14 12 12 15 14 14 15 16 15 13 10 13 14 12 11 12 12 12 12 13 12 10 8 6 3 6 12 10 8 12 13 10 10 11 11 12 13 12 12 11 11 11 12 12 12 12 12 12 12 12 12 11 11 11 12 12 12 12 12 12 11 11 10 10 10 10 10 10 9 9 10 11 11 12 12 12 13
12 11 12 13 13 12 12 13 14 11 8 9 13 13 13 13 12 11 11 12 14 13 12 11 10 10 10 11 11 12 10 10 11 11 12 13 11 11 12 11 9 11 12 12 13 12 11 11 10 10 10 11 10 9 10 12 13 14 14 13 12 12 13 13 13 14 15 16 16 16 15 14 13 12 11 10 9 9 9 9 9 10 10 10 11 11
12 13 14 14 13 12 13 14 13 12 14 16 15 12 12 12 10 10 11 11 11 11 10 11 10 10 11 11 11 11 11 11 12 12 12 12 11 9 8 9 11 12 10 8 7 6 7 8 8 8 8 8 7 8 10 12 14 14 14 12 11 13 15 15 14 15 14 12 11 13 15 16 15 15 14 13 13 12 11 10 10 10 10 11 11 10
15 13 14 15 14 14 14 13 10 11 14 15 11 9 11 12 11 11 11 10 10 11 11 10 10 10 11 10 10 10 9 10 10 9 9 9 8 7 7 7 6 4 3 3 3 5 7 8 9 10 10 9 9 10 12 13 12 11 10 9 9 10 11 12 14 14 12 9 8 10 12 14 14 15 15 15 15 14 13 13 12 12 12 13 13 12
14 13 13 12 11 12 13 12 10 9 9 8 7 10 12 11 11 10 10 9 8 9 9 8 8 9 8 8 8 8 8 8 8 8 8 8 8 9 8 9 9 8 7 8 8 8 9 9 10 10 10 10 10 10 11 11 10 10 10 9 8 8 9 10 11 12 12 11 10 11 12 12 11 11 11 12 12 12 11 11 11 11 12 12 12 12
10 12 12 11 10 10 11 11 11 11 10 9 10 11 10 10 9 9 8 8 7 7 8 8 7 7 8 8 8 8 7 8 8 8 8 8 8 8 8 9 10 9 9 9 8 7 8 8 7 7 7 7 7 7 7 6 6 7 7 6 7 8 10 11 12 11 10 9 9 10 11 11 10 10 10 10 9 8 8 8 8 9 9 10 12 14
9 10 10 10 10 10 10 10 11 11 11 11 11 11 10 10 9 8 8 9 8 8 8 8 8 8 7 7 7 7 7 7 7 7 8 7 7 8 8 8 9 9 9 9 8 8 7 6 5 5 4 4 4 5 5 4 6 7 7 7 9 11 11 11 11 9 8 9 11 12 12 12 13 13 13 13 13 14 14 14 15 18 20 22 24 25
10 10 10 9 10 10 11 11 11 11 11 10 10 11 10 10 10 9 9 9 9 9 9 8 8 8 8 8 8 8 8 7 8 8 7 7 8 8 7 7 7 8 8 8 9 10 10 10 10 10 9 9 9 8 8 9 9 9 9 9 10 11 10 9 8 8 9 10 11 11 12 13 15 16 20 23 26 29 30 31 32 32 32 31 30 29
9 9 9 10 10 10 9 9 9 10 9 10 11 11 11 10 10 9 9 9 9 9 10 9 9 9 8 8 8 8 8 8 9 9 8 8 9 9 9 8 8 9 9 9 9 10 10 10 11 11 12 12 12 13 13 12 12 12 13 12 11 10 9 10 11 12 13 15 17 19 22 24 27 31 33 35 35 34 32 32 31 29 27 28 29 31
9 9 10 10 9 10 10 11 12 11 9 10 12 13 13 13 12 11 12 13 13 13 12 12 11 11 12 12 12 11 11 12 11 10 10 10 10 10 11 12 11 11 11 11 10 10 11 11 10 10 11 11 12 14 13 14 16 17 14 13 13 15 18 22 26 30 33 35 36 37 36 35 35 34 31 30 28 22 19 22 26 26 26 25 24 21
11 11 11 11 12 13 12 11 12 13 14 15 15 16 17 17 17 17 17 16 16 17 18 18 18 19 19 19 18 17 16 16 17 17 16 17 18 18 18 17 17 16 15 15 15 14 14 15 15 14 13 14 16 16 18 21 22 17 16 20 27 33 38 41 41 42 42 40 36 32 29 25 24 22 20 22 21 13 10 18 26 24 20 15 11 10
Height
5745 5745 5745 5745 5746 5747 5748 5748 5749 5750 5751 5752 5753 5753 5754 5755 5754 5753 5754 5754 5755 5757 5756 5756 5759 5759 5759 5760 5761 5763 5764 5765 5765 5766 5768 5768 5769 5770 5771 5772 5772 5772 5772 5772 5773 5773 5772 5772 5773 5773 5772 5773 5773 5773 5772 5772 5771 5772 5773 5774 5775 5775 5775 5775 5775 5775 5775 5775 5775 5775 5776 5776 5776 5776 5775 5775 5776 5776 5776 5776 5777 5777 5778 5778 5777 5777
5743 5743 5742 5743 5744 5745 5747 5747 5748 5749 5750 5751 5752 5752 5753 5753 5752 5752 5753 5753 5754 5756 5754 5754 5757 5757 5757 5757 5758 5760 5761 5762 5762 5763 5764 5765 5766 5766 5767 5768 5768 5768 5769 5769 5770 5770 5770 5770 5770 5770 5770 5771 5771 5770 5770 5769 5768 5769 5771 5772 5772 5773 5772 5773 5772 5772 5772 5772 5773 5773 5772 5773 5773 5772 5772 5772 5772 5773 5773 5773 5773 5774 5774 5774 5774 5775
5741 5740 5740 5741 5742 5743 5745 5746 5746 5747 5748 5749 5750 5751 5752 5751 5751 5751 5751 5751 5752 5754 5753 5753 5755 5755 5755 5756 5756 5757 5758 5759 5759 5760 5761 5761 5762 5763 5764 5764 5765 5765 5766 5767 5768 5768 5768 5768 5768 5768 5769 5768 5768 5768 5767 5766 5765 5766 5768 5768 5770 5770 5770 5770 5770 5769 5769 5769 5770 5769 5769 5770 5769 5769 5769 5769 5769 5769 5770 5770 5770 5771 5771 5771 5771 5771
5738 5737 5738 5739 5740 5741 5742 5743 5744 5745 5746 5747 5748 5749 5749 5749 5750 5749 5748 5749 5751 5752 5751 5752 5753 5753 5753 5754 5754 5754 5755 5756 5756 5757 5757 5758 5759 5760 5761 5762 5763 5763 5764 5765 5765 5766 5766 5766 5766 5766 5766 5766 5766 5765 5765 5763 5762 5763 5765 5765 5766 5767 5767 5767 5767 5767 5767 5767 5767 5766 5766 5766 5766 5766 5766 5766 5766 5767 5767 5767 5767 5768 5768 5768 5768 5768
5735 5735 5736 5737 5738 5739 5740 5741 5742 5743 5743 5744 5745 5746 5746 5746 5748 5747 5746 5747 5749 5749 5750 5750 5751 5752 5751 5751 5752 5752 5753 5753 5754 5754 5755 5756 5757 5757 5758 5759 5761 5761 5762 5762 5763 5764 5764 5764 5764 5764 5764 5764 5764 5763 5761 5760 5760 5760 5762 5762 5763 5764 5763 5764 5764 5764 5764 5764 5764 5764 5764 5763 5763 5763 5763 5763 5763 5764 5764 5764 5765 5765 5765 5765 5765 5766
5732 5733 5734 5734 5735 5736 5738 5738 5739 5740 5740 5741 5742 5743 5743 5743 5744 5744 5744 5745 5747 5747 5747 5748 5750 5750 5748 5748 5749 5749 5750 5751 5751 5751 5752 5753 5754 5755 5756 5757 5758 5759 5760 5760 5761 5761 5761 5762 5762 5762 5762 5761 5761 5760 5758 5757 5757 5758 5758 5759 5760 5761 5760 5760 5760 5761 5761 5761 5761 5761 5761 5760 5760 5760 5760 5760 5760 5761 5761 5761 5762 5762 5762 5763 5763 5763
5730 5731 5731 5732 5733 5734 5735 5736 5736 5738 5738 5738 5739 5739 5740 5740 5741 5741 5741 5743 5744 5744 5744 5745 5747 5747 5745 5745 5745 5746 5747 5747 5747 5748 5749 5750 5751 5752 5753 5754 5755 5756 5757 5757 5758 5758 5759 5759 5759 5759 5759 5759 5758 5757 5756 5754 5754 5755 5755 5756 5757 5757 5757 5757 5757 5757 5757 5758 5758 5758 5758 5758 5758 5757 5757 5757 5757 5758 5758 5758 5759 5759 5760 5760 5760 5760
5728 5728 5729 5730 5731 5732 5733 5733 5733 5735 5736 5736 5735 5736 5737 5737 5738 5738 5739 5740 5741 5740 5740 5742 5743 5744 5744 5742 5741 5742 5743 5743 5743 5745 5746 5747 5748 5749 5750 5751 5752 5753 5753 5754 5755 5755 5756 5756 5757 5757 5756 5756 5755 5754 5753 5752 5751 5752 5752 5753 5753 5753 5753 5754 5754 5754 5754 5755 5755 5755 5755 5755 5755 5755 5755 5755 5755 5755 5755 5755 5756 5756 5757 5757 5757 5758
5726 5726 5726 5727 5729 5729 5729 5730 5731 5732 5733 5733 5733 5733 5734 5735 5735 5736 5736 5737 5737 5737 5738 5739 5739 5740 5741 5739 5738 5739 5740 5740 5739 5741 5742 5743 5744 5745 5746 5747 5748 5749 5750 5751 5752 5752 5752 5753 5753 5753 5753 5753 5752 5751 5751 5749 5748 5749 5750 5750 5750 5750 5750 5750 5751 5751 5751 5752 5752 5752 5752 5752 5753 5753 5753 5752 5752 5753 5753 5753 5753 5753 5754 5754 5754 5755
5724 5724 5724 5725 5726 5726 5726 5727 5728 5729 5730 5730 5730 5731 5732 5732 5733 5733 5734 5734 5734 5734 5735 5736 5736 5736 5737 5736 5735 5735 5737 5737 5736 5736 5738 5739 5740 5741 5742 5743 5744 5745 5746 5747 5748 5748 5749 5749 5749 5749 5750 5750 5749 5748 5748 5746 5745 5746 5747 5747 5747 5747 5747 5748 5748 5748 5749 5749 5749 5749 5749 5750 5750 5750 5750 5750 5750 5750 5750 5750 5750 5751 5751 5751 5751 5752
5722 5722 5722 5723 5723 5724 5724 5724 5725 5726 5727 5727 5728 5729 5729 5730 5730 5730 5731 5731 5731 5731 5732 5732 5732 5732 5733 5733 5733 5732 5733 5733 5732 5732 5733 5735 5735 5736 5737 5738 5739 5741 5742 5743 5744 5744 5745 5745 5745 5745 5745 5745 5745 5744 5744 5743 5742 5743 5743 5744 5744 5744 5745 5745 5745 5746 5746 5747 5747 5747 5747 5747 5747 5747 5747 5747 5747 5747 5748 5748 5748 5748 5748 5748 5749 5749
5720 5720 5720 5720 5721 5721 5722 5722 5722 5723 5724 5725 5727 5727 5727 5728 5728 5728 5728 5728 5728 5728 5728 5728 5728 5728 5730 5730 5729 5729 5729 5730 5729 5728 5729 5730 5730 5731 5732 5733 5734 5735 5737 5738 5739 5740 5740 5740 5740 5741 5741 5740 5741 5740 5740 5740 5740 5740 5740 5741 5741 5742 5742 5742 5743 5743 5744 5744 5744 5744 5744 5745 5745 5745 5745 5745 5745 5745 5745 5745 5745 5746 5746 5746 5746 5746
5718 5718 5718 5718 5718 5719 5719 5720 5720 5721 5722 5723 5724 5725 5725 5726 5724 5724 5725 5724 5725 5725 5724 5725 5725 5724 5726 5726 5726 5726 5726 5726 5726 5725 5726 5726 5726 5727 5728 5729 5730 5731 5732 5733 5734 5734 5735 5736 5736 5736 5736 5736 5736 5736 5737 5737 5737 5737 5737 5738 5739 5739 5740 5740 5741 5741 5741 5742 5742 5742 5742 5742 5742 5742 5743 5743 5743 5742 5743 5743 5743 5743 5743 5743 5743 5744
5717 5716 5716 5716 5716 5716 5717 5718 5718 5719 5720 5720 5721 5722 5722 5723 5722 5721 5722 5722 5723 5722 5721 5721 5721 5721 5722 5722 5722 5723 5723 5723 5723 5723 5723 5723 5723 5723 5724 5725 5725 5726 5727 5728 5729 5730 5730 5731 5731 5732 5732 5733 5733 5733 5733 5733 5734 5734 5735 5735 5736 5737 5737 5738 5738 5738 5739 5739 5739 5740 5740 5740 5740 5740 5740 5740 5740 5740 5740 5740 5740 5741 5741 5741 5741 5741
5716 5715 5714 5714 5714 5714 5715 5715 5716 5716 5717 5718 5718 5719 5719 5720 5720 5719 5719 5720 5720 5719 5717 5717 5718 5718 5719 5719 5718 5719 5720 5720 5721 5720 5720 5720 5720 5720 5721 5721 5722 5723 5723 5724 5725 5725 5726 5727 5727 5728 5729 5729 5730 5730 5730 5730 5731 5732 5732 5732 5733 5733 5734 5734 5735 5735 5735 5736 5736 5737 5737 5737 5738 5738 5738 5738 5738 5738 5738 5738 5738 5738 5738 5738 5738 5739
5714 5714 5713 5712 5713 5713 5713 5713 5713 5714 5715 5715 5715 5716 5717 5717 5717 5716 5716 5716 5716 5716 5714 5714 5714 5715 5716 5715 5715 5716 5717 5717 5718 5717 5717 5717 5717 5717 5718 5718 5719 5719 5720 5720 5721 5722 5723 5724 5724 5725 5725 5726 5726 5726 5727 5728 5728 5729 5729 5730 5730 5730 5731 5731 5731 5731 5732 5732 5733 5733 5734 5734 5734 5735 5735 5735 5735 5736 5736 5736 5736 5736 5736 5736 5736 5736
5712 5711 5710 5710 5710 5710 5711 5711 5711 5712 5712 5712 5713 5713 5713 5714 5714 5713 5713 5713 5713 5712 5711 5711 5711 5712 5712 5711 5712 5712 5713 5714 5714 5714 5714 5714 5714 5714 5715 5715 5716 5717 5717 5718 5718 5719 5720 5720 5721 5721 5722 5722 5723 5723 5724 5724 5725 5725 5726 5726 5726 5727 5727 5728 5728 5728 5728 5729 5729 5730 5730 5731 5731 5731 5732 5732 5733 5733 5733 5733 5734 5734 5734 5734 5734 5734
5709 5709 5708 5709 5708 5708 5709 5708 5709 5709 5709 5710 5710 5710 5710 5711 5711 5711 5710 5710 5709 5709 5708 5708 5708 5709 5709 5708 5708 5709 5709 5710 5710 5711 5711 5711 5712 5712 5712 5713 5713 5714 5714 5715 5715 5716 5717 5717 5717 5718 5719 5719 5719 5720 5721 5721 5722 5722 5722 5722 5723 5723 5724 5724 5724 5725 5725 5725 5726 5726 5727 5727 5728 5728 5729 5729 5730 5730 5730 5731 5731 5731 5731 5731 5732 5732
5706 5706 5705 5705 5706 5706 5706 5706 5706 5706 5706 5707 5707 5707 5708 5708 5708 5708 5707 5706 5706 5705 5705 5705 5704 5705 5706 5705 5705 5705 5705 5706 5706 5707 5708 5708 5709 5709 5709 5710 5710 5711 5712 5712 5713 5713 5714 5714 5714 5714 5715 5715 5716 5717 5718 5718 5719 5719 5719 5719 5719 5720 5721 5721 5721 5722 5722 5722 5723 5723 5723 5724 5725 5725 5726 5726 5727 5727 5727 5727 5728 5728 5728 5729 5729 5729
5703 5703 5703 5702 5702 5703 5703 5704 5704 5703 5703 5704 5704 5704 5705 5705 5705 5704 5704 5703 5703 5702 5701 5702 5701 5701 5702 5702 5702 5702 5702 5702 5703 5703 5704 5705 5705 5706 5706 5707 5708 5708 5709 5709 5710 5710 5711 5712 5712 5712 5712 5712 5713 5713 5714 5715 5715 5716 5716 5716 5716 5717 5718 5718 5718 5719 5719 5720 5720 5720 5720 5721 5721 5722 5723 5723 5724 5723 5723 5724 5724 5725 5725 5726 5726 5726
5699 5699 5700 5699 5699 5700 5700 5700 5701 5701 5700 5701 5701 5701 5701 5701 5701 5701 5701 5700 5700 5699 5698 5698 5698 5698 5698 5698 5698 5698 5698 5699 5699 5699 5700 5701 5701 5702 5703 5704 5704 5705 5706 5706 5707 5707 5708 5709 5710 5710 5710 5710 5711 5711 5711 5711 5711 5711 5712 5712 5713 5714 5715 5715 5715 5716 5716 5716 5717 5717 5717 5717 5718 5719 5719 5720 5721 5720 5720 5720 5721 5722 5723 5723 5723 5723
5694 5695 5695 5695 5695 5696 5696 5695 5697 5697 5697 5697 5698 5698 5698 5698 5697 5697 5696 5697 5697 5696 5696 5694 5693 5694 5694 5694 5695 5695 5695 5695 5695 5696 5696 5696 5697 5698 5699 5700 5701 5702 5702 5703 5703 5704 5705 5705 5706 5707 5707 5708 5708 5708 5709 5709 5709 5709 5709 5710 5711 5711 5711 5711 5712 5712 5713 5713 5714 5714 5714 5714 5715 5715 5716 5717 5717 5717 5717 5718 5718 5719 5719 5720 5720 5721
5690 5690 5690 5690 5691 5691 5690 5691 5692 5692 5692 5692 5693 5694 5694 5694 5694 5693 5692 5693 5693 5691 5691 5690 5689 5689 5689 5689 5690 5691 5690 5691 5691 5691 5691 5692 5693 5693 5694 5695 5696 5697 5698 5699 5700 5700 5701 5702 5702 5703 5704 5704 5704 5705 5705 5705 5706 5706 5706 5707 5707 5708 5708 5709 5709 5709 5709 5710 5711 5711 5711 5711 5712 5712 5713 5713 5714 5714 5714 5715 5715 5716 5716 5717 5717 5718
5686 5685 5685 5685 5685 5686 5686 5686 5686 5686 5686 5686 5686 5687 5688 5688 5689 5689 5688 5689 5687 5686 5687 5686 5685 5685 5685 5685 5685 5685 5685 5685 5685 5686 5686 5687 5688 5688 5689 5691 5691 5693 5694 5695 5695 5696 5697 5697 5698 5699 5700 5700 5701 5701 5701 5701 5701 5702 5702 5702 5702 5703 5704 5705 5705 5706 5706 5706 5707 5707 5708 5708 5708 5709 5709 5710 5710 5710 5711 5711 5712 5712 5713 5713 5714 5715
5681 5680 5680 5681 5680 5680 5680 5681 5681 5681 5681 5681 5680 5680 5681 5682 5682 5682 5683 5683 5681 5682 5683 5682 5680 5682 5681 5679 5680 5680 5680 5681 5680 5681 5681 5682 5683 5683 5684 5685 5686 5687 5688 5689 5690 5691 5691 5692 5693 5694 5694 5695 5696 5696 5697 5697 5697 5697 5698 5697 5698 5699 5700 5700 5701 5701 5702 5702 5702 5703 5704 5704 5705 5705 5705 5706 5707 5707 5707 5707 5707 5708 5709 5709 5710 5710
5676 5675 5675 5676 5675 5675 5675 5675 5674 5674 5674 5675 5675 5675 5675 5675 5675 5675 5676 5677 5676 5677 5678 5676 5676 5678 5677 5674 5674 5675 5675 5676 5675 5675 5676 5676 5677 5678 5679 5679 5680 5681 5682 5683 5684 5685 5686 5687 5688 5688 5689 5690 5690 5691 5691 5692 5692 5692 5693 5693 5693 5694 5694 5695 5696 5696 5697 5698 5698 5698 5699 5699 5700 5700 5701 5702 5702 5702 5703 5703 5703 5704 5704 5705 5705 5706
5670 5670 5670 5670 5670 5670 5671 5669 5669 5669 5668 5668 5668 5668 5669 5669 5670 5670 5669 5670 5671 5671 5671 5670 5671 5672 5672 5670 5669 5670 5669 5669 5669 5669 5670 5670 5671 5671 5672 5673 5674 5675 5676 5677 5678 5679 5680 5681 5682 5683 5683 5684 5684 5685 5685 5686 5686 5687 5687 5688 5688 5689 5689 5690 5691 5691 5692 5693 5693 5693 5694 5694 5695 5695 5696 5697 5697 5697 5698 5698 5699 5699 5700 5700 5701 5701
5664 5664 5665 5664 5664 5665 5664 5663 5663 5663 5663 5663 5662 5662 5662 5663 5664 5664 5663 5664 5665 5663 5664 5665 5665 5664 5666 5666 5665 5664 5663 5663 5663 5663 5663 5663 5664 5665 5665 5666 5667 5668 5669 5670 5671 5673 5673 5674 5675 5676 5677 5677 5678 5679 5679 5680 5680 5680 5681 5682 5683 5683 5684 5684 5685 5686 5687 5687 5687 5687 5688 5689 5689 5690 5690 5691 5691 5692 5693 5693 5694 5694 5695 5695 5696 5697
5658 5658 5658 5658 5659 5659 5658 5657 5657 5657 5656 5657 5657 5657 5657 5657 5657 5657 5658 5659 5659 5657 5658 5660 5658 5657 5659 5661 5660 5660 5659 5658 5658 5657 5656 5656 5657 5658 5659 5659 5660 5661 5662 5663 5664 5665 5666 5667 5668 5669 5669 5670 5671 5672 5672 5673 5674 5674 5675 5676 5677 5678 5678 5679 5680 5680 5681 5682 5682 5682 5682 5683 5684 5684 5685 5685 5686 5687 5688 5689 5689 5689 5690 5690 5691 5691
5652 5652 5651 5652 5652 5652 5652 5651 5650 5650 5650 5649 5650 5651 5651 5651 5650 5651 5652 5653 5653 5652 5652 5653 5653 5652 5652 5653 5654 5654 5653 5653 5652 5650 5649 5649 5650 5652 5653 5653 5654 5655 5655 5656 5657 5658 5659 5660 5661 5662 5662 5663 5664 5665 5666 5667 5668 5669 5669 5670 5671 5672 5672 5673 5674 5674 5675 5676 5676 5677 5677 5677 5678 5679 5679 5680 5681 5681 5682 5683 5684 5684 5684 5685 5685 5685
5646 5645 5645 5645 5645 5645 5645 5645 5644 5644 5643 5642 5643 5644 5644 5645 5646 5646 5646 5646 5646 5646 5646 5646 5646 5646 5645 5645 5647 5648 5647 5647 5645 5644 5644 5644 5644 5645 5646 5646 5648 5649 5649 5650 5651 5652 5653 5653 5654 5655 5656 5657 5658 5659 5660 5661 5662 5662 5663 5664 5665 5665 5666 5666 5667 5668 5668 5669 5670 5670 5671 5672 5672 5673 5674 5675 5675 5675 5676 5677 5678 5678 5678 5679 5680 5679
5639 5638 5638 5638 5637 5638 5639 5638 5638 5637 5636 5635 5636 5637 5638 5639 5640 5640 5639 5639 5639 5639 5640 5639 5639 5640 5639 5639 5641 5642 5641 5640 5638 5638 5638 5637 5638 5638 5639 5639 5640 5641 5642 5643 5644 5645 5646 5647 5648 5648 5650 5651 5651 5652 5653 5654 5654 5655 5656 5657 5657 5658 5659 5659 5660 5661 5661 5662 5662 5663 5664 5665 5666 5667 5668 5669 5669 5670 5670 5671 5671 5672 5672 5673 5673 5673
5632 5632 5632 5631 5630 5631 5631 5630 5631 5631 5629 5628 5629 5631 5633 5632 5632 5632 5632 5632 5633 5632 5632 5631 5632 5633 5632 5632 5634 5635 5634 5634 5633 5633 5633 5632 5632 5632 5631 5631 5632 5633 5635 5636 5637 5638 5639 5640 5641 5642 5643 5643 5644 5644 5645 5646 5647 5648 5648 5649 5650 5650 5651 5652 5652 5653 5654 5654 5655 5655 5657 5658 5659 5660 5661 5662 5663 5663 5664 5664 5665 5665 5666 5666 5667 5667
5626 5626 5626 5625 5624 5625 5623 5623 5624 5624 5622 5622 5623 5624 5625 5625 5624 5625 5625 5625 5625 5625 5625 5625 5625 5625 5624 5624 5626 5627 5627 5627 5627 5627 5627 5627 5627 5627 5625 5624 5625 5626 5627 5628 5629 5631 5632 5633 5634 5635 5635 5636 5636 5637 5637 5638 5639 5640 5640 5641 5642 5642 5643 5643 5644 5645 5645 5646 5647 5648 5650 5651 5652 5653 5654 5655 5656 5656 5657 5657 5658 5658 5659 5659 5660 5661
5620 5620 5620 5619 5618 5619 5617 5616 5617 5616 5616 5617 5618 5618 5618 5617 5617 5617 5617 5617 5617 5617 5618 5618 5617 5617 5617 5617 5618 5619 5620 5620 5620 5620 5620 5621 5621 5621 5619 5618 5619 5619 5620 5621 5622 5623 5624 5625 5625 5626 5627 5628 5628 5629 5629 5630 5631 5632 5632 5633 5633 5634 5634 5635 5636 5636 5637 5638 5639 5640 5642 5643 5644 5645 5646 5647 5648 5649 5649 5650 5650 5651 5651 5652 5652 5653
5614 5614 5614 5613 5613 5612 5611 5610 5609 5609 5610 5611 5611 5611 5611 5611 5610 5610 5609 5609 5610 5610 5610 5610 5610 5610 5611 5611 5611 5612 5612 5612 5612 5613 5613 5614 5614 5614 5612 5612 5613 5614 5614 5615 5615 5616 5616 5617 5617 5618 5618 5619 5620 5620 5621 5622 5623 5624 5624 5625 5625 5626 5627 5627 5628 5628 5629 5630 5631 5633 5634 5635 5636 5637 5638 5639 5640 5641 5641 5642 5642 5643 5643 5644 5645 5646
5608 5607 5607 5607 5606 5606 5605 5604 5603 5603 5603 5603 5603 5604 5604 5604 5604 5603 5602 5602 5603 5603 5603 5602 5603 5603 5603 5604 5604 5605 5605 5605 5605 5604 5606 5607 5607 5606 5606 5607 5607 5608 5608 5608 5608 5608 5609 5609 5609 5610 5610 5611 5611 5612 5612 5613 5614 5616 5616 5617 5618 5618 5619 5620 5620 5620 5621 5622 5623 5625 5626 5627 5628 5629 5630 5631 5631 5632 5633 5634 5634 5635 5635 5636 5637 5638
5601 5601 5600 5600 5600 5599 5599 5598 5597 5597 5597 5596 5596 5597 5597 5597 5596 5596 5595 5594 5595 5596 5595 5595 5595 5596 5596 5596 5598 5598 5599 5600 5599 5596 5597 5599 5599 5599 5600 5600 5601 5601 5601 5601 5601 5601 5601 5602 5602 5602 5603 5603 5603 5604 5604 5605 5606 5608 5609 5610 5610 5611 5611 5612 5612 5612 5614 5615 5616 5616 5617 5618 5620 5621 5622 5622 5623 5624 5625 5625 5626 5627 5627 5628 5629 5629
5594 5594 5593 5593 5593 5592 5592 5592 5592 5590 5590 5590 5590 5590 5591 5590 5589 5590 5588 5586 5586 5588 5589 5588 5588 5589 5589 5589 5591 5592 5593 5595 5593 5588 5588 5591 5591 5592 5594 5594 5594 5595 5594 5594 5594 5594 5595 5595 5595 5595 5595 5595 5596 5596 5597 5598 5599 5600 5601 5602 5603 5603 5604 5604 5604 5605 5606 5607 5608 5609 5610 5611 5612 5613 5614 5614 5615 5616 5616 5617 5618 5619 5619 5620 5621 5622
5588 5587 5587 5587 5586 5586 5585 5585 5585 5584 5583 5583 5584 5583 5584 5583 5583 5582 5581 5579 5580 5582 5582 5582 5581 5582 5582 5583 5584 5585 5586 5588 5585 5580 5581 5585 5585 5585 5586 5586 5586 5587 5587 5587 5587 5588 5588 5588 5588 5588 5588 5588 5589 5589 5590 5591 5592 5593 5594 5594 5595 5596 5596 5596 5596 5597 5599 5599 5600 5601 5602 5603 5604 5605 5606 5606 5607 5608 5609 5609 5610 5610 5611 5612 5613 5613
5581 5580 5580 5580 5580 5580 5578 5578 5579 5578 5575 5576 5577 5577 5577 5577 5576 5575 5573 5573 5574 5575 5575 5575 5575 5575 5576 5576 5577 5578 5579 5579 5578 5576 5576 5578 5578 5577 5578 5579 5579 5579 5580 5580 5580 5580 5581 5581 5581 5581 5581 5581 5581 5582 5583 5583 5584 5585 5585 5586 5587 5588 5588 5588 5589 5590 5591 5591 5592 5594 5595 5595 5596 5597 5598 5599 5599 5600 5601 5601 5602 5602 5603 5604 5605 5605
5574 5573 5574 5574 5573 5573 5572 5571 5572 5570 5568 5569 5571 5570 5570 5570 5568 5567 5567 5567 5568 5568 5568 5569 5569 5569 5569 5569 5570 5570 5571 5571 5572 5571 5571 5571 5571 5571 5572 5572 5572 5572 5572 5572 5573 5573 5574 5574 5574 5574 5574 5574 5574 5575 5575 5576 5576 5577 5577 5578 5579 5580 5580 5581 5582 5582 5583 5584 5585 5586 5586 5587 5588 5589 5590 5591 5591 5592 5593 5594 5594 5594 5595 5596 5597 5597
5568 5567 5568 5568 5567 5567 5566 5565 5564 5563 5561 5562 5563 5562 5562 5563 5561 5561 5562 5562 5562 5562 5562 5562 5562 5562 5562 5562 5562 5563 5563 5563 5564 5564 5564 5564 5564 5564 5565 5565 5565 5565 5565 5565 5566 5566 5566 5567 5567 5567 5567 5567 5568 5568 5568 5568 5569 5569 5569 5571 5572 5572 5572 5573 5574 5574 5575 5576 5577 5578 5578 5579 5580 5581 5582 5583 5584 5584 5585 5586 5586 5586 5587 5588 5589 5589
5563 5562 5562 5562 5560 5560 5560 5559 5557 5557 5556 5555 5554 5554 5555 5555 5555 5556 5556 5556 5555 5555 5556 5556 5555 5555 5555 5555 5555 5555 5556 5556 5556 5556 5556 5557 5557 5557 5557 5557 5557 5557 5558 5558 5558 5558 5559 5559 5559 5559 5560 5561 5561 5561 5561 5561 5561 5561 5562 5563 5564 5565 5565 5565 5565 5566 5567 5568 5569 5570 5571 5571 5572 5573 5574 5575 5576 5577 5578 5578 5578 5579 5580 5581 5581 5582
5557 5556 5556 5556 5555 5554 5554 5553 5552 5552 5551 5549 5548 5548 5548 5549 5549 5548 5548 5548 5548 5547 5548 5548 5547 5547 5547 5547 5547 5547 5547 5548 5548 5548 5549 5549 5549 5549 5549 5550 5550 5550 5550 5550 5550 5550 5551 5552 5551 5552 5553 5554 5554 5554 5554 5554 5554 5555 5555 5556 5557 5557 5557 5557 5558 5559 5560 5561 5561 5562 5563 5564 5565 5565 5566 5567 5568 5569 5570 5570 5571 5571 5572 5573 5574 5574
5551 5551 5550 5550 5549 5548 5548 5548 5547 5547 5546 5544 5543 5543 5542 5542 5542 5541 5540 5540 5540 5540 5540 5540 5539 5539 5539 5539 5539 5539 5539 5539 5540 5540 5541 5541 5541 5542 5542 5542 5543 5542 5543 5542 5542 5542 5543 5544 5544 5544 5545 5546 5546 5546 5547 5547 5547 5547 5548 5549 5549 5549 5549 5549 5550 5551 5552 5552 5553 5554 5555 5556 5557 5557 5558 5559 5560 5561 5561 5562 5562 5563 5564 5565 5566 5567
5545 5545 5545 5544 5543 5543 5542 5542 5542 5541 5540 5538 5537 5536 5535 5535 5534 5534 5533 5533 5533 5533 5533 5533 5532 5532 5531 5531 5531 5531 5531 5531 5531 5532 5532 5532 5533 5534 5534 5535 5534 5534 5534 5534 5534 5535 5536 5536 5537 5537 5538 5539 5539 5539 5540 5540 5540 5540 5541 5541 5541 5541 5541 5542 5542 5543 5544 5544 5545 5545 5546 5547 5547 5548 5549 5550 5551 5552 5552 5553 5554 5555 5556 5557 5558 5559
5539 5539 5538 5538 5537 5536 5536 5536 5535 5534 5533 5532 5531 5530 5529 5528 5527 5527 5526 5525 5525 5525 5525 5525 5525 5524 5524 5524 5523 5523 5524 5524 5523 5523 5524 5524 5524 5525 5526 5526 5526 5525 5525 5525 5526 5527 5528 5528 5529 5529 5530 5531 5531 5532 5532 5533 5532 5533 5533 5533 5533 5534 5534 5534 5534 5535 5535 5536 5536 5537 5537 5538 5538 5539 5540 5541 5542 5542 5543 5544 5546 5547 5548 5549 5550 5552
5534 5533 5532 5531 5530 5530 5529 5529 5527 5527 5526 5525 5524 5523 5522 5521 5520 5520 5519 5518 5517 5517 5517 5517 5517 5516 5516 5516 5516 5515 5515 5516 5515 5515 5515 5515 5515 5516 5517 5517 5517 5517 5516 5517 5517 5518 5519 5520 5521 5521 5522 5523 5524 5524 5525 5525 5525 5525 5525 5525 5526 5527 5527 5526 5527 5527 5527 5527 5527 5528 5529 5529 5530 5531 5532 5533 5534 5535 5536 5538 5539 5541 5542 5543 5545 5546
5528 5527 5525 5524 5524 5523 5523 5521 5520 5519 5519 5518 5517 5516 5514 5513 5512 5512 5512 5511 5510 5509 5509 5508 5508 5508 5508 5507 5507 5507 5507 5507 5507 5506 5506 5507 5507 5507 5507 5508 5508 5508 5508 5508 5508 5509 5510 5511 5512 5513 5514 5515 5516 5516 5517 5518 5518 5518 5518 5519 5520 5520 5519 5519 5519 5519 5518 5519 5519 5520 5521 5522 5523 5525 5526 5528 5529 5530 5531 5533 5535 5536 5538 5539 5541 5543
5522 5521 5519 5518 5517 5516 5515 5514 5512 5511 5511 5511 5510 5508 5507 5505 5504 5504 5504 5503 5502 5501 5500 5500 5500 5500 5499 5499 5498 5497 5498 5498 5498 5497 5497 5498 5499 5498 5498 5498 5498 5499 5499 5499 5500 5500 5501 5503 5504 5505 5506 5507 5508 5509 5510 5511 5510 5510 5511 5512 5513 5513 5512 5512 5512 5512 5512 5512 5513 5514 5515 5517 5518 5520 5522 5524 5526 5527 5528 5531 5532 5534 5535 5537 5539 5540